Vancouver, WA

11:39 PM PDT on August 16, 2017 (GMT -0700)
Pearson

Weather History for KVUO - April, 2014

Change the Weather History Date:

Friday, April 18, 2014

  Actual Average Record
Temperature  
Mean Temperature 48 °F 52 °F  
Max Temperature 59 °F 62 °F 89 °F (2016)
Min Temperature 36 °F 43 °F 28 °F (1972)
Degree Days  
Heating Degree Days 17    
Month to date heating degree days 217  
Since 1 July heating degree days 4199  
Cooling Degree Days 0    
Month to date cooling degree days 0  
Year to date cooling degree days 0  
Moisture  
Dew Point 37 °F    
Average Humidity 67    
Maximum Humidity 93    
Minimum Humidity 40    
Precipitation  
Precipitation 0.00 in 0.10 in 0.63 in (1925)
Month to date precipitation 1.24 1.85  
Year to date precipitation 14.65 14.95  
Sea Level Pressure  
Sea Level Pressure 30.08 in    
Wind  
Wind Speed 4 mph (WNW)    
Max Wind Speed 12 mph    
Max Gust Speed 14 mph    
Visibility 7 miles    
Events      
T = Trace of Precipitation, MM = Missing Value Source: NWS Daily Summary

Daily Weather History Graph

Daily Weather History Graph

Search for Another Location

Airport or City:

Trip Planner

Search our weather history database for the weather conditions in past years. The results will help you decide how hot, cold, wet, or windy it might be!

Date:

Astronomy

Apr. 18, 2014 Rise Set
Actual Time 6:19 AM PDT 8:01 PM PDT
Civil Twilight 5:48 AM PDT 8:32 PM PDT
Nautical Twilight 5:10 AM PDT 9:10 PM PDT
Astronomical Twilight 4:28 AM PDT 9:52 PM PDT
Moon 11:58 PM PDT (4/18) 8:39 AM PDT (4/18)
Length of Visible Light 14h 44m
Length of Day
13h 41m
Waning Gibbous, 86% of the Moon is Illuminated
Apr 18
Waning Gibbous
Apr 22
Last Quarter
Apr 28
New
May 6
First Quarter
May 14
Full

Hourly Weather History & Observations

Time (PDT) Temp. Windchill Dew Point Humidity Pressure Visibility Wind Dir Wind Speed Gust Speed Precip Events Conditions
12:53 AM 43.0 °F - 39.9 °F 89% 30.06 in 10.0 mi Calm Calm - N/A   Scattered Clouds
1:53 AM 41.0 °F 39.0 °F 39.0 °F 93% 30.07 in 10.0 mi East 3.5 mph - N/A   Partly Cloudy
2:53 AM 41.0 °F - 37.9 °F 89% 30.08 in 10.0 mi Calm Calm - N/A   Clear
3:53 AM 41.0 °F - 37.9 °F 89% 30.10 in 10.0 mi Calm Calm - N/A   Clear
4:53 AM 37.9 °F - 36.0 °F 93% 30.11 in 8.0 mi Calm Calm - N/A   Clear
5:21 AM 37.0 °F - 35.1 °F 93% 30.11 in 1.8 mi Calm Calm - N/A   Clear
5:32 AM 37.9 °F - 36.0 °F 93% 30.12 in 3.0 mi Calm Calm - N/A   Clear
5:53 AM 37.0 °F - 35.1 °F 93% 30.12 in 4.0 mi Calm Calm - N/A   Clear
6:44 AM 37.0 °F - 35.1 °F 93% 30.13 in 1.5 mi Calm Calm - N/A   Clear
6:51 AM 37.4 °F - 35.6 °F 93% 30.14 in 1.0 mi Calm Calm - N/A   Clear
6:53 AM 37.9 °F - 35.1 °F 89% 30.14 in 1.5 mi Calm Calm - N/A   Clear
6:55 AM 37.9 °F - 36.0 °F 93% 30.14 in 4.0 mi Calm Calm - N/A   Clear
6:57 AM 37.0 °F - 36.0 °F 96% 30.14 in 1.5 mi Calm Calm - N/A   Clear
7:01 AM 37.0 °F - 36.0 °F 96% 30.14 in 0.8 mi Calm Calm - N/A   Clear
7:07 AM 37.9 °F - 36.0 °F 93% 30.14 in 1.5 mi Calm Calm - N/A   Clear
7:10 AM 37.9 °F - 37.0 °F 97% 30.14 in 4.0 mi Calm Calm - N/A   Clear
7:53 AM 44.1 °F - 41.0 °F 89% 30.15 in 10.0 mi Calm Calm - N/A   Clear
8:33 AM 46.0 °F 43.1 °F 41.0 °F 83% 30.15 in 10.0 mi SE 5.8 mph - N/A   Partly Cloudy
8:53 AM 46.9 °F - 42.1 °F 83% 30.15 in 10.0 mi ESE 6.9 mph - N/A   Clear
9:53 AM 48.9 °F - 41.0 °F 74% 30.15 in 10.0 mi East 4.6 mph - N/A   Clear
10:53 AM 51.1 °F - 37.9 °F 61% 30.17 in 10.0 mi Variable 3.5 mph - N/A   Scattered Clouds
11:53 AM 53.1 °F - 36.0 °F 52% 30.17 in 10.0 mi Variable 3.5 mph - N/A   Scattered Clouds
12:53 PM 55.0 °F - 36.0 °F 49% 30.16 in 10.0 mi WSW 5.8 mph - N/A   Clear
1:53 PM 55.0 °F - 34.0 °F 45% 30.12 in 10.0 mi SW 5.8 mph - N/A   Clear
2:53 PM 57.0 °F - 37.0 °F 47% 30.09 in 10.0 mi Variable 4.6 mph - N/A   Clear
3:53 PM 57.0 °F - 34.0 °F 42% 30.06 in 10.0 mi WSW 6.9 mph - N/A   Clear
4:53 PM 59.0 °F - 37.0 °F 44% 30.03 in 10.0 mi NW 6.9 mph - N/A   Clear
5:53 PM 59.0 °F - 36.0 °F 42% 30.01 in 10.0 mi NW 8.1 mph - N/A   Clear
6:53 PM 57.9 °F - 37.0 °F 46% 29.98 in 10.0 mi NNW 6.9 mph - N/A   Clear
7:53 PM 55.9 °F - 37.0 °F 49% 29.96 in 10.0 mi NW 3.5 mph - N/A   Clear
8:53 PM 54.0 °F - 36.0 °F 51% 29.94 in 10.0 mi NW 3.5 mph - N/A   Clear
9:53 PM 50.0 °F - 37.9 °F 63% 29.91 in 10.0 mi Calm Calm - N/A   Clear
10:53 PM 46.0 °F - 37.9 °F 73% 29.90 in 10.0 mi Calm Calm - N/A   Clear
11:53 PM 45.0 °F - 37.9 °F 76% 29.88 in 10.0 mi Calm Calm - N/A   Clear